Skip Page Navigation
NASA JPL Caltech
NASA Logo - Jet Propulsion Laboratory + View the NASA Portal
+ Center for Near-Earth Object Studies
JPL Home Earth Solar System Stars & Galaxies Technology
JPL Solar System Dynamics
BODIES ORBITS EPHEMERIDES TOOLS PHYSICAL DATA DISCOVERY FAQ SITE MAP
IMPORTANT: The SSD Announcement email list is now available. Major changes are coming in the near future, including possible hostname and/or URL changes. To be notified of such changes, subscribe to this email list.

Please visit this page for more details.


JPL Small-Body Database Browser
Search: [ help ]  
59252 (1999 CE25)
Classification: Main-belt Asteroid          SPK-ID: 2059252
Ephemeris | Orbit Diagram | Orbital Elements | Mission Design | Physical Parameters | Discovery Circumstances ]

[ show orbit diagram ]
Orbital Elements at Epoch 2458600.5 (2019-Apr-27.0) TDB
Reference: JPL 22 (heliocentric ecliptic J2000)
 Element Value Uncertainty (1-sigma)   Units 
e .1738339281951077 5.008e-08  
a 2.416375573651854 1.0323e-08 au
q 1.996327515689246 1.1832e-07 au
i 5.072034870050473 4.3937e-06 deg
node 76.40592815955338 6.2112e-05 deg
peri 67.92634460791243 6.393e-05 deg
M 131.2499787428461 1.3726e-05 deg
tp 2458100.302147028017
(2017-Dec-12.80214703)
5.1843e-05 TDB
period 1371.971476069507
3.76
8.7922e-06
2.407e-08
d
yr
n .2623961257790476 1.6815e-09 deg/d
Q 2.836423631614463 1.2118e-08 au
  Orbit Determination Parameters
   # obs. used (total)      687  
   data-arc span      10505 days (28.76 yr)  
   first obs. used      1990-11-17  
   last obs. used      2019-08-22  
   planetary ephem.      DE431  
   SB-pert. ephem.      SB431-N16  
   condition code      0  
   norm. resid. RMS      .57992  
   source      ORB  
   producer      Otto Matic  
   solution date      2019-Sep-24 02:28:05  

Additional Information
 Earth MOID = 1.01582 au 
 Jupiter MOID = 2.19184 au 
 T_jup = 3.490 
[ show covariance matrix ]

Ephemeris | Orbit Diagram | Orbital Elements | Mission Design | Physical Parameters | Discovery Circumstances ]

Physical Parameter Table
Parameter Symbol Value Units Sigma Reference Notes
absolute magnitude H 15.7   n/a MPO436196  
diameter diameter 3.885 km 0.090 urn:nasa:pds:neowise_diameters_albedos::2.0[mainbelt] (http://adsabs.harvard.edu/abs/2011ApJ...741...68M)  
geometric albedo albedo 0.056   0.007 urn:nasa:pds:neowise_diameters_albedos::2.0[mainbelt] (http://adsabs.harvard.edu/abs/2011ApJ...741...68M)  

59252 (1999 CE25)          Discovered 1999-Feb-10 by LINEAR at Socorro
Reference: 20030614/Numbers.arcLast Updated: 2004-04-19
Ephemeris | Orbit Diagram | Orbital Elements | Mission Design | Physical Parameters | Discovery Circumstances ]
ABOUT SSD CREDITS/AWARDS PRIVACY/COPYRIGHT GLOSSARY LINKS
FirstGov 2020-Jan-20 12:39 UT
(server date/time)  
NASA Home Page
Site Manager:   Ryan S. Park
Webmaster  Alan B. Chamberlin